Location: Flensburg
(54.6357°N, 9.5142°E)
Time: 13:27:37
(UTC+01:00)

ISS - Pass Details

Date: 10 January 2018
Orbit: 402 x 407 km, 51.6° (Epoch: 22 January)

Event Time Altitude Azimuth Distance (km) Brightness Sun altitude
Exits shadow 06:31:12 29° 218° (SW) 776 -2.7 -17.5°
Maximum altitude 06:31:39 30° 201° (SSW) 751 -2.6 -17.4°
Drops below altitude 10° 06:34:35 10° 138° (SE) 1,467 -0.2 -17.0°
Sets 06:36:48 0° 127° (SE) 2,326 1.3 -16.7°
